Location: Ammerl�gen
(47.2167°N, 9.6000°E)
Time: 04:12:54
(UTC+00:00)

Cosmos 44 Rocket - Pass Details

Date: 21 April 2021
Orbit: 636 x 754 km, 65.1° (Epoch: 16 May)

Event Time Altitude Azimuth Distance (km) Brightness Sun altitude
Exits shadow 21:16:06 33° 224° (SW) 1,210 4.4 -24.5°
Maximum altitude 21:18:25 81° 307° (NW) 752 3.4 -24.7°
Drops below altitude 10° 21:23:39 10° 36° (NE) 2,275 6.2 -25.2°
Sets 21:26:04 0° 37° (NE) 3,210 7.0 -25.4°
